Wind_Speed
13 12 12 11 11 10 10 9 9 8 7 7 8 10 9 9 7 7 7 6 6 5 5 6 6 7 8 8 9 10 10 11 11 12 12 12 13 13 13 12 12 12 11 11 10 10 10 9 8
14 14 13 13 12 11 10 10 10 9 8 8 9 11 11 11 9 9 9 7 8 7 7 8 8 8 9 10 10 11 12 12 13 13 13 14 14 14 14 14 13 13 13 12 12 12 11 10 9
15 15 15 14 13 12 11 11 11 10 10 11 11 11 12 11 10 11 10 9 9 9 9 10 9 9 10 11 12 13 13 13 14 14 15 15 15 15 15 15 15 14 14 14 13 13 12 11 11
16 16 16 16 15 13 13 12 11 12 13 13 13 12 13 12 11 11 11 10 9 9 9 10 10 10 11 12 13 14 14 15 15 15 16 16 16 16 17 17 16 16 15 15 15 14 13 13 12
17 17 17 17 16 15 15 13 13 14 13 13 13 13 14 12 11 10 9 9 9 10 10 11 11 12 13 14 14 15 15 16 16 17 17 17 18 17 17 18 18 17 17 16 16 15 15 14 13
18 18 18 18 17 16 15 15 13 14 14 14 14 15 15 13 12 11 12 11 10 10 11 13 13 14 14 15 16 16 17 17 18 18 18 19 19 18 19 19 19 19 18 18 17 16 16 15 14
19 19 19 19 18 16 16 15 14 14 14 16 16 16 14 12 12 11 11 11 10 11 12 13 14 15 16 16 17 17 18 18 19 20 19 19 19 19 20 20 20 20 20 19 18 18 17 16 16
19 19 20 19 18 17 16 14 14 15 17 18 17 16 15 13 12 11 11 12 12 12 13 13 14 15 17 17 18 19 19 20 21 21 20 20 20 21 21 21 21 21 21 21 20 19 18 18 17
19 20 20 20 20 18 16 14 15 16 18 18 17 16 15 14 12 12 12 13 13 13 14 15 15 16 17 17 18 18 19 20 21 21 20 20 21 21 22 22 22 21 21 21 20 20 20 19 18
20 20 21 22 21 19 16 15 16 16 17 18 18 17 16 15 14 13 13 14 14 14 15 16 17 17 17 17 18 18 19 20 20 20 21 21 21 22 23 23 22 22 22 22 21 20 20 19 19
21 22 22 22 21 19 16 16 17 16 17 18 18 17 17 16 15 14 14 15 15 16 16 17 17 17 17 18 18 17 18 19 20 21 21 21 22 22 23 23 24 23 23 23 22 22 21 20 20
23 23 23 22 20 18 17 16 16 17 18 17 17 17 17 16 15 15 16 16 17 17 17 18 17 18 17 17 18 18 19 20 20 21 22 22 23 23 23 23 24 24 24 24 24 23 22 21 21
23 23 24 23 20 19 17 17 18 19 19 19 19 18 17 17 17 16 17 18 18 18 17 18 18 18 17 18 19 19 20 21 20 21 21 21 22 23 22 23 23 23 23 24 24 24 23 22 22
24 24 24 23 21 19 18 17 18 19 19 18 17 17 16 16 17 17 18 18 18 19 18 18 18 19 18 19 19 19 20 20 20 20 21 22 22 22 22 23 23 23 22 22 23 23 23 23 23
23 22 22 21 20 18 18 18 17 17 18 18 17 17 16 16 17 18 19 19 20 20 19 19 19 19 19 19 20 20 20 21 20 19 20 21 21 22 23 23 23 23 22 21 21 22 22 23 23
21 20 20 19 18 16 17 17 15 16 16 16 16 16 16 17 16 17 19 20 20 20 20 20 18 18 19 20 20 20 21 21 21 21 21 21 21 22 23 23 24 24 23 23 23 23 23 24 24
18 17 17 16 15 15 15 14 13 12 13 14 14 15 15 15 17 18 19 20 20 19 19 19 19 19 20 20 21 21 22 22 23 22 22 22 22 22 23 23 24 24 24 24 24 24 24 24 24
15 14 14 14 13 13 13 12 12 12 12 13 14 14 14 15 17 18 19 19 19 18 19 19 20 19 20 21 22 22 24 24 24 24 24 24 23 23 23 24 24 25 25 24 24 25 25 25 25
14 12 10 9 10 11 11 12 12 13 14 14 15 16 16 17 17 18 19 19 18 19 19 20 20 21 21 22 22 23 23 24 24 23 23 23 24 24 25 25 24 25 26 26 26 26 26 26 27
13 10 9 9 10 12 12 13 14 14 15 16 17 18 18 17 17 19 21 21 19 19 20 21 20 21 22 22 23 24 24 24 23 24 24 24 24 25 26 26 25 26 27 28 28 28 28 28 28
11 10 10 11 12 15 16 17 16 17 18 18 19 18 18 17 18 19 20 21 21 21 21 21 21 21 22 23 23 24 24 24 24 24 24 24 25 26 27 27 27 27 28 29 29 29 29 29 29
10 10 11 12 14 16 19 20 19 20 20 20 19 18 19 18 18 19 19 20 21 21 21 21 21 22 23 24 24 25 24 25 25 24 24 25 26 27 28 28 28 28 28 28 28 28 29 29 29
11 12 13 13 15 17 18 21 21 21 21 21 21 19 18 18 18 19 18 20 21 21 21 20 21 23 24 25 25 25 26 26 26 25 26 26 27 27 27 27 27 27 27 27 27 28 29 29 29
14 14 15 15 16 18 19 22 23 23 22 22 21 20 20 19 18 19 19 20 21 21 21 23 23 23 24 25 26 26 27 27 26 27 27 27 27 26 26 26 26 27 27 27 27 28 28 28 29
13 15 16 17 18 19 20 22 23 23 23 22 21 21 21 19 18 18 19 20 21 21 21 22 22 24 25 26 26 27 27 27 26 27 27 27 26 26 25 25 25 25 25 25 25 26 26 27 28
13 14 16 18 19 18 19 22 23 24 23 22 22 21 20 19 18 19 20 20 20 20 21 22 22 23 24 25 25 26 26 25 26 26 26 26 26 26 25 24 24 24 23 23 24 24 25 25 26
13 15 16 18 19 20 19 20 21 21 21 19 19 19 19 19 19 20 20 20 21 22 21 22 23 23 24 24 25 26 25 25 24 25 25 26 25 25 24 23 22 23 23 22 23 23 23 24 23
14 15 16 17 18 19 20 20 18 17 18 17 16 18 20 20 19 20 20 20 21 22 22 21 22 22 23 24 24 24 24 24 24 24 23 24 23 23 23 22 21 21 21 21 21 21 21 21 21
14 15 15 16 18 19 19 19 17 17 17 17 18 18 18 19 19 19 20 21 21 21 21 21 21 22 22 22 22 22 23 23 24 23 23 23 21 21 20 20 20 19 19 19 19 19 19 19 19
14 15 15 16 16 18 19 19 18 18 18 18 18 18 18 18 19 19 19 20 20 20 21 21 21 21 20 20 20 21 21 22 21 21 21 20 20 20 19 19 18 18 18 18 17 17 17 17 17
Wind_Direction
214 209 205 199 195 198 197 198 217 225 250 276 290 289 289 296 301 303 299 300 295 296 292 290 290 285 281 278 275 275 276 276 276 279 280 282 282 281 281 282 281 280 280 279 279 278 277 276 276
212 207 203 199 198 200 203 209 224 233 251 270 283 286 285 291 293 295 294 293 293 297 294 291 286 283 281 278 274 273 274 274 274 275 278 279 278 276 275 276 277 278 278 277 277 277 274 274 276
210 206 203 199 199 205 208 220 227 239 255 269 275 280 278 281 286 286 285 284 287 291 293 291 286 283 282 279 278 277 276 275 275 274 275 277 277 274 272 272 273 273 274 274 274 273 271 272 275
209 206 202 200 199 204 212 224 231 246 258 269 278 279 276 278 277 279 280 283 285 289 291 287 283 282 284 283 281 279 277 275 274 273 273 275 275 272 271 270 270 271 271 271 270 269 268 269 272
207 202 199 199 200 206 218 224 235 245 257 271 278 278 281 277 272 274 279 284 287 287 284 283 281 280 282 282 282 281 278 275 273 272 273 274 274 272 271 271 270 270 269 269 269 267 267 267 268
203 201 198 198 201 209 218 230 244 254 266 275 278 282 283 273 269 270 279 283 282 282 284 285 283 281 282 282 281 281 277 274 273 272 272 272 272 272 271 271 270 268 267 267 266 265 265 265 265
202 199 198 202 207 214 219 232 246 255 268 276 278 277 279 277 274 277 280 278 280 280 284 283 282 283 282 283 282 281 278 274 272 271 272 271 269 271 271 269 269 269 268 266 265 263 264 264 264
200 199 201 206 212 216 220 231 241 257 267 273 275 273 277 275 275 277 274 276 278 282 285 286 283 285 286 285 283 280 278 277 275 273 271 272 271 270 269 269 268 268 268 266 264 262 262 263 264
198 199 202 209 217 221 225 237 251 264 269 274 276 275 278 277 275 274 274 276 279 282 286 287 288 289 290 287 287 285 281 280 278 275 273 272 271 269 269 268 267 266 265 265 263 262 261 262 263
196 198 205 213 220 226 232 241 252 262 271 278 280 282 279 277 275 275 274 277 278 280 283 286 289 290 290 289 291 287 285 282 277 275 275 273 271 270 268 268 266 265 264 264 262 262 261 262 262
195 200 206 215 223 231 239 245 253 265 273 279 279 280 279 274 271 272 277 280 280 280 283 285 286 289 291 290 289 288 289 284 280 277 275 274 271 271 271 270 269 268 266 263 262 260 260 261 261
196 202 207 215 225 235 242 248 256 264 271 275 277 278 277 272 273 279 281 281 278 279 283 287 289 289 288 287 287 289 290 287 285 283 278 276 274 274 274 272 271 270 268 264 261 262 261 260 260
197 203 211 217 223 233 242 250 260 265 269 274 276 273 272 274 279 279 281 284 284 282 282 285 287 288 286 289 289 288 289 289 289 285 281 281 279 278 278 275 272 271 268 266 263 263 261 261 261
202 206 214 221 228 236 246 252 258 263 267 272 274 273 273 276 275 278 281 282 282 280 279 282 284 285 285 287 288 289 291 291 289 287 284 281 280 279 276 275 277 273 270 268 265 263 261 262 262
208 211 217 223 231 237 246 251 258 261 265 267 267 269 272 276 279 282 286 286 284 282 281 280 283 284 285 288 289 290 290 290 289 287 287 284 282 281 278 277 276 273 271 270 266 265 264 262 263
210 215 220 227 232 238 247 252 259 262 267 270 268 268 271 275 280 286 288 288 284 285 284 283 285 286 288 292 294 294 292 291 290 290 289 287 285 283 280 279 277 276 274 271 269 269 267 264 263
212 217 221 224 228 239 251 257 266 268 271 275 276 274 273 277 283 285 288 289 285 285 288 284 285 288 291 292 292 292 292 291 290 289 288 287 285 284 282 281 278 275 273 271 270 269 268 265 264
209 216 223 223 231 242 255 265 272 277 283 279 277 277 278 280 285 288 290 289 287 283 286 285 286 289 292 292 292 292 292 290 289 288 286 284 284 284 283 283 280 275 274 273 272 271 269 267 265
202 210 220 223 236 253 263 267 273 281 284 282 282 283 285 284 284 286 290 288 289 287 287 287 288 288 290 291 291 293 293 293 291 288 287 286 285 285 285 284 280 278 276 275 272 271 269 267 266
198 209 222 233 251 266 269 270 273 284 288 287 287 287 285 288 286 290 292 287 288 286 285 286 288 289 290 291 290 291 292 292 291 290 289 289 287 286 286 284 280 280 279 276 274 272 270 269 267
205 219 230 239 256 264 270 275 280 286 286 288 288 288 284 285 289 290 289 287 287 286 282 282 286 287 289 290 290 292 292 292 290 288 288 288 288 286 285 283 281 280 279 277 275 273 271 270 268
207 221 233 239 253 264 271 275 282 286 285 287 290 292 285 286 290 289 289 291 290 288 283 284 285 286 289 290 291 291 291 292 290 288 288 288 288 286 285 283 282 280 279 277 276 273 272 270 268
222 232 240 243 253 261 270 277 281 283 283 286 288 290 288 288 294 293 289 293 294 290 290 289 289 287 288 290 290 289 290 291 291 290 289 288 288 287 285 284 282 281 279 279 278 276 273 270 267
235 238 242 248 254 259 267 274 278 280 281 282 283 287 290 289 295 298 297 298 298 294 292 289 289 288 289 290 289 289 290 291 291 291 291 291 290 289 286 285 284 282 280 280 280 277 273 270 267
240 240 243 249 255 262 268 271 275 275 277 278 279 282 288 292 296 299 300 302 301 297 296 293 293 291 291 291 291 291 291 290 291 291 292 292 291 289 288 287 287 285 283 282 281 279 275 272 268
245 247 248 252 259 265 269 275 278 276 277 278 280 281 285 289 293 296 299 300 298 298 297 296 295 294 294 293 291 291 290 290 291 292 292 293 291 290 290 289 289 287 285 284 283 280 277 274 271
251 253 255 260 264 270 275 280 284 280 282 284 283 284 288 291 294 295 297 297 297 298 299 298 297 296 294 294 293 291 291 291 293 294 295 294 291 289 287 287 287 286 285 284 284 281 279 276 271
254 258 259 263 269 274 277 285 291 289 286 289 291 290 289 289 292 295 297 299 301 299 298 298 297 296 296 295 293 293 293 295 296 296 296 294 291 289 288 287 287 288 287 285 285 283 280 276 271
258 261 265 267 273 278 283 287 291 297 294 297 301 299 296 292 295 297 299 300 300 298 297 298 297 297 296 296 295 294 296 297 297 297 297 297 295 294 291 289 288 287 288 287 285 284 280 278 273
265 270 271 270 276 281 285 289 292 299 301 300 301 303 301 297 296 296 298 300 302 302 300 298 298 297 295 296 298 300 299 299 299 299 300 301 300 298 294 291 289 289 288 288 286 284 280 279 277
Height
5911 5913 5915 5917 5918 5919 5919 5919 5919 5920 5920 5920 5920 5920 5921 5922 5923 5925 5922 5921 5920 5920 5920 5919 5919 5919 5919 5918 5918 5918 5917 5917 5916 5915 5915 5914 5913 5913 5912 5911 5910 5909 5909 5908 5907 5906 5905 5905 5904
5910 5911 5914 5915 5916 5917 5917 5917 5918 5918 5919 5919 5920 5919 5920 5920 5921 5921 5920 5920 5919 5919 5919 5918 5918 5918 5917 5917 5917 5916 5916 5915 5915 5914 5913 5913 5912 5911 5910 5910 5909 5908 5907 5906 5905 5905 5904 5903 5903
5907 5909 5912 5913 5914 5915 5915 5915 5916 5916 5917 5918 5919 5919 5920 5920 5920 5919 5919 5918 5918 5917 5917 5917 5917 5916 5916 5915 5915 5914 5914 5913 5913 5912 5911 5911 5910 5909 5908 5908 5907 5906 5905 5904 5903 5903 5902 5901 5901
5905 5908 5910 5912 5912 5913 5913 5913 5913 5914 5915 5916 5918 5918 5918 5918 5918 5917 5917 5916 5916 5916 5915 5915 5914 5914 5914 5913 5913 5912 5912 5911 5910 5910 5909 5908 5907 5907 5906 5905 5905 5904 5903 5902 5901 5901 5900 5899 5899
5903 5905 5908 5909 5909 5910 5911 5911 5911 5912 5913 5914 5916 5916 5916 5915 5915 5915 5915 5915 5914 5914 5913 5913 5912 5912 5911 5911 5910 5910 5909 5908 5907 5907 5906 5905 5905 5904 5903 5903 5902 5901 5901 5900 5899 5898 5898 5897 5897
5901 5903 5905 5905 5907 5908 5909 5909 5909 5910 5911 5912 5913 5913 5913 5913 5913 5914 5913 5912 5912 5912 5911 5910 5910 5909 5908 5908 5907 5907 5906 5905 5904 5903 5903 5902 5901 5901 5900 5900 5899 5899 5898 5897 5897 5896 5895 5895 5894
5899 5901 5902 5904 5904 5905 5906 5906 5907 5909 5909 5910 5911 5912 5911 5911 5911 5911 5911 5910 5909 5909 5909 5908 5907 5906 5906 5905 5904 5903 5902 5901 5900 5900 5899 5898 5898 5897 5897 5896 5896 5895 5895 5894 5893 5893 5892 5892 5891
5896 5899 5900 5901 5902 5903 5903 5904 5905 5906 5906 5908 5909 5909 5910 5910 5909 5909 5908 5908 5907 5906 5906 5905 5904 5904 5903 5902 5901 5899 5898 5897 5896 5895 5895 5895 5894 5893 5893 5892 5892 5891 5891 5890 5890 5889 5889 5888 5888
5893 5897 5897 5899 5900 5901 5901 5902 5902 5903 5904 5905 5906 5906 5907 5907 5907 5906 5906 5905 5905 5904 5903 5902 5901 5901 5899 5898 5896 5895 5894 5893 5892 5892 5891 5890 5890 5889 5888 5888 5887 5887 5886 5886 5885 5885 5885 5885 5884
5891 5893 5895 5897 5897 5898 5899 5900 5900 5901 5901 5902 5903 5903 5904 5903 5904 5904 5903 5902 5901 5901 5900 5899 5898 5897 5895 5894 5893 5891 5890 5889 5888 5887 5887 5886 5885 5885 5884 5883 5883 5882 5882 5882 5881 5881 5881 5881 5880
5888 5891 5892 5893 5895 5895 5896 5898 5899 5899 5900 5899 5900 5900 5900 5900 5900 5900 5900 5899 5898 5897 5896 5895 5894 5893 5892 5890 5889 5887 5886 5885 5884 5883 5882 5881 5881 5880 5880 5879 5878 5877 5877 5877 5877 5877 5876 5876 5876
5885 5887 5889 5891 5892 5893 5894 5895 5896 5897 5897 5897 5897 5898 5897 5897 5896 5896 5896 5895 5894 5893 5892 5891 5890 5889 5887 5886 5885 5883 5882 5881 5880 5878 5877 5877 5876 5876 5875 5874 5873 5873 5872 5872 5872 5872 5872 5872 5871
5882 5884 5886 5888 5890 5891 5891 5892 5893 5894 5894 5894 5894 5894 5894 5893 5892 5892 5891 5891 5890 5889 5888 5887 5887 5885 5884 5882 5881 5879 5878 5877 5875 5874 5873 5872 5871 5870 5870 5869 5868 5868 5868 5867 5867 5867 5867 5867 5867
5879 5881 5884 5885 5887 5888 5889 5890 5891 5891 5892 5892 5891 5890 5889 5889 5889 5888 5887 5887 5885 5884 5884 5883 5882 5881 5880 5878 5877 5875 5874 5872 5871 5869 5868 5867 5866 5865 5865 5864 5863 5863 5863 5862 5862 5862 5862 5862 5862
5877 5880 5881 5883 5885 5886 5887 5888 5888 5889 5889 5889 5888 5887 5886 5885 5885 5885 5884 5883 5882 5880 5879 5878 5878 5877 5875 5874 5872 5871 5869 5868 5866 5865 5863 5862 5861 5860 5859 5859 5858 5858 5857 5857 5857 5857 5857 5857 5857
5875 5877 5879 5881 5882 5883 5885 5885 5885 5885 5885 5885 5884 5883 5882 5882 5882 5881 5880 5879 5877 5876 5874 5873 5872 5872 5871 5869 5867 5866 5864 5863 5861 5860 5859 5857 5856 5855 5854 5853 5853 5852 5852 5852 5852 5852 5851 5851 5851
5873 5875 5877 5878 5879 5880 5881 5882 5882 5882 5882 5881 5880 5879 5879 5878 5878 5877 5876 5874 5872 5871 5869 5868 5867 5866 5865 5864 5862 5861 5859 5858 5856 5855 5853 5852 5850 5849 5848 5847 5847 5846 5846 5846 5846 5846 5845 5845 5845
5871 5872 5874 5875 5877 5877 5878 5878 5878 5878 5879 5878 5877 5876 5874 5874 5873 5873 5872 5869 5867 5866 5865 5863 5862 5861 5860 5859 5857 5856 5854 5852 5851 5849 5848 5846 5844 5843 5842 5841 5841 5840 5840 5839 5839 5839 5838 5838 5838
5868 5870 5871 5872 5873 5873 5874 5874 5875 5874 5874 5874 5873 5871 5870 5870 5870 5869 5867 5865 5864 5862 5861 5859 5858 5857 5855 5854 5852 5851 5849 5847 5845 5844 5842 5840 5839 5837 5836 5835 5834 5833 5832 5832 5831 5831 5831 5831 5831
5866 5867 5868 5870 5870 5870 5870 5871 5871 5871 5871 5870 5869 5867 5866 5866 5865 5864 5863 5860 5860 5858 5856 5855 5853 5852 5850 5849 5847 5845 5843 5841 5839 5838 5836 5834 5833 5831 5829 5828 5827 5826 5825 5824 5824 5824 5823 5823 5823
5864 5865 5866 5867 5867 5867 5867 5867 5867 5867 5866 5865 5864 5863 5862 5861 5860 5860 5858 5856 5855 5853 5851 5850 5848 5847 5845 5843 5841 5839 5837 5836 5834 5832 5830 5828 5826 5824 5823 5821 5820 5819 5818 5817 5816 5816 5815 5815 5814
5862 5863 5863 5864 5864 5864 5865 5864 5864 5863 5862 5861 5860 5858 5858 5857 5856 5855 5853 5851 5850 5848 5846 5845 5843 5842 5840 5838 5836 5834 5832 5830 5828 5826 5824 5821 5819 5817 5815 5814 5812 5811 5810 5809 5808 5807 5807 5806 5806
5859 5860 5861 5861 5861 5862 5861 5860 5861 5858 5858 5857 5856 5855 5854 5853 5852 5850 5848 5846 5844 5843 5841 5839 5838 5836 5834 5832 5830 5828 5826 5823 5821 5819 5816 5814 5812 5809 5807 5806 5804 5803 5801 5800 5799 5798 5798 5797 5797
5857 5858 5858 5858 5858 5858 5858 5857 5856 5855 5853 5852 5851 5850 5849 5848 5847 5845 5843 5842 5839 5837 5835 5833 5831 5830 5828 5826 5824 5821 5819 5816 5814 5812 5809 5806 5804 5802 5799 5798 5796 5794 5793 5792 5790 5789 5789 5788 5788
5855 5856 5856 5855 5855 5855 5854 5852 5852 5850 5849 5848 5847 5846 5845 5844 5842 5840 5839 5837 5834 5832 5829 5827 5825 5823 5821 5819 5817 5814 5812 5810 5807 5805 5802 5799 5796 5794 5792 5790 5788 5786 5785 5784 5782 5781 5780 5779 5779
5851 5852 5853 5852 5852 5851 5850 5848 5848 5846 5845 5843 5842 5841 5840 5839 5837 5835 5833 5831 5829 5826 5824 5822 5819 5817 5815 5813 5810 5808 5806 5803 5801 5798 5795 5792 5789 5787 5785 5783 5780 5779 5777 5776 5774 5773 5772 5771 5770
5848 5848 5849 5848 5847 5847 5846 5844 5842 5841 5840 5838 5837 5836 5835 5834 5832 5830 5828 5826 5824 5821 5819 5816 5813 5811 5809 5807 5804 5802 5799 5797 5794 5791 5788 5785 5783 5780 5778 5776 5773 5772 5770 5768 5767 5765 5764 5763 5763
5845 5845 5845 5844 5843 5842 5842 5840 5839 5838 5836 5835 5833 5831 5830 5828 5826 5824 5821 5819 5818 5815 5813 5810 5808 5805 5803 5801 5798 5796 5793 5791 5788 5785 5782 5779 5776 5774 5771 5769 5767 5765 5763 5761 5760 5758 5757 5756 5756
5841 5841 5840 5840 5840 5839 5837 5838 5835 5834 5832 5831 5829 5827 5825 5822 5820 5818 5816 5814 5812 5809 5807 5804 5802 5799 5797 5794 5792 5790 5787 5785 5782 5779 5776 5773 5770 5767 5765 5763 5760 5758 5757 5755 5754 5752 5751 5750 5749
5838 5837 5837 5837 5836 5835 5833 5835 5831 5829 5828 5826 5824 5822 5819 5817 5815 5812 5811 5809 5806 5804 5802 5799 5797 5794 5791 5789 5787 5784 5782 5779 5776 5773 5770 5767 5764 5762 5759 5757 5754 5752 5751 5749 5748 5747 5746 5745 5743